This is the latest recevied weather packets stored in our database for station/object KF7SOJ. If no packets are shown the sender has not sent any weather packets the latest 10 day(s).
| Time | Temp. | Humidity | Pressure | Rain* | Wind** | Luminosity | Snow |
|---|---|---|---|---|---|---|---|
| 1777747074 | 21.11° C | 26% | 933.6 hPa | 0 mm | - | 902 W/m² | - |
| 1777744044 | 21.67° C | 28% | 933.6 hPa | 0 mm | - | 869 W/m² | - |
| 1777743438 | 21.11° C | 25% | 933.5 hPa | 0 mm | - | 887 W/m² | - |
| 1777742225 | 21.11° C | 25% | 933.5 hPa | 0 mm | - | 856 W/m² | - |
| 1777741012 | 21.11° C | 25% | 933.6 hPa | 0 mm | - | 718 W/m² | - |
| 1777740405 | 20.56° C | 24% | 933.6 hPa | 0 mm | - | 751 W/m² | - |
| 1777739798 | 20° C | 25% | 933.6 hPa | 0 mm | - | 520 W/m² | - |
| 1777739192 | 20° C | 25% | 933.7 hPa | 0 mm | - | 487 W/m² | - |
| 1777738889 | 20° C | 23% | 933.7 hPa | 0 mm | - | 554 W/m² | - |
| 1777738586 | 20° C | 24% | 933.6 hPa | 0 mm | - | 645 W/m² | - |
| 1777738283 | 19.44° C | 25% | 933.6 hPa | 0 mm | - | 631 W/m² | - |
| 1777737981 | 20° C | 24% | 933.3 hPa | 0 mm | - | 621 W/m² | - |
| 1777737680 | 19.44° C | 27% | 933.3 hPa | 0 mm | - | 671 W/m² | - |
| 1777737378 | 18.89° C | 28% | 933.4 hPa | 0 mm | - | 667 W/m² | - |
| 1777737074 | 18.89° C | 27% | 933.4 hPa | 0 mm | - | 629 W/m² | - |
| 1777736770 | 18.89° C | 25% | 933.3 hPa | 0 mm | - | 592 W/m² | - |
| 1777736142 | 18.33° C | 27% | 933.4 hPa | 0 mm | - | 563 W/m² | - |
| 1777735839 | 18.33° C | 26% | 933.3 hPa | 0 mm | - | 556 W/m² | - |
| 1777735536 | 18.33° C | 26% | 933.4 hPa | 0 mm | - | 523 W/m² | - |
| 1777735234 | 17.78° C | 27% | 933.5 hPa | 0 mm | - | 515 W/m² | - |
| 1777734931 | 17.78° C | 25% | 933.4 hPa | 0 mm | - | 519 W/m² | - |
| 1777734628 | 17.78° C | 26% | 933.5 hPa | 0 mm | - | 499 W/m² | - |
| 1777734326 | 17.22° C | 26% | 933.4 hPa | 0 mm | - | 443 W/m² | - |
| 1777734021 | 17.22° C | 26% | 933.5 hPa | 0 mm | - | 448 W/m² | - |
| 1777733718 | 17.22° C | 26% | 933.6 hPa | 0 mm | - | 471 W/m² | - |
* Rain latest hour (hover to see other rain measurements)
** Current wind speed in m/s (hover to see current wind gust speed)